{"data":{"norad_id":56298,"intl_designator":"2023-056N","name":"STARLINK-30109","alt_names":[],"object_type":"PAYLOAD","status":"ACTIVE","operator":null,"country":"US","launch_date":"2023-04-19","launch_site_code":"AFETR","launch_vehicle":null,"mission":null,"orbit_class":"UNKNOWN","rcs_meters":null,"size_class":null,"mass_kg":null,"dimensions":null,"purposes":["comms"],"wikipedia_slug":null,"has_3d_model":false,"image_url":null,"decayed_at":null,"tle_current":{"epoch":"2026-05-25T00:12:34.229664Z","epoch_age_seconds":68253,"freshness":"FRESH","line1":"1 56298U 23056N   26145.00872951 -.00000040  00000+0  80502-5 0  9990","line2":"2 56298  43.0009 137.6965 0001014 272.4389  87.6346 15.27575845171772","mean_motion":15.27575845,"eccentricity":0.0001014,"inclination_deg":43.0009,"raan_deg":137.6965,"arg_perigee_deg":272.4389,"mean_anomaly_deg":87.6346,"bstar":8.0502e-6,"rev_number":17177,"period_min":94.267005118819,"perigee_km":482.36581210089,"apogee_km":483.75726316432,"semimajor_km":6861.1985376326,"source":"CELESTRAK","updated_at":"2026-05-25T13:38:17.966570Z"}}}